This demonstration page uses our WeatherBlox Daily Observations layout. Learn more.

Left ArrowRight Arrow

30.21309, -93.2044

Hourly Observations for July 7, 2022

Temp ( °F °C ) Dew Point ( °F °C ) Humidity (%) Winds ( mph kmh ) Pressure ( in mb ) Visibility ( mi km ) Precip ( " mm )
12:15 am 00:15 Clear 78 25.7 76 24.3 92 92 SSE 6 9 29.99 1016 10 16 0.00 0.00
12:35 am 00:35 Partly Cloudy 78 25.3 75 24 93 93 S 3 6 29.99 1016 10 16 0.00 0.00
12:55 am 00:55 Partly Cloudy 79 26.1 76 24.7 92 92 S 5 7 29.99 1016 10 16 0.00 0.00
1:15 am 01:15 Clear 78 25.8 76 24.4 92 92 S 5 7 29.99 1016 10 16 0.00 0.00
1:35 am 01:35 Clear 78 25.7 76 24.4 93 93 S 5 7 29.99 1016 10 16 0.00 0.00
1:55 am 01:55 Clear 78 25.3 75 24 93 93 S 5 7 29.98 1015 10 16 0.00 0.00
2:15 am 02:15 Clear 77 24.9 75 23.9 94 94 Calm 29.98 1015 7 11 0.00 0.00
2:35 am 02:35 Clear 77 25.1 76 24.2 95 95 Calm 29.98 1015 10 16 0.00 0.00
2:55 am 02:55 Clear with Mist and Fog 76 24.7 75 23.8 95 95 S 3 6 29.97 1015 7 11 0.00 0.00
3:15 am 03:15 Clear 77 24.8 75 23.9 95 95 Calm 29.97 1015 10 16 0.00 0.00
3:35 am 03:35 Clear 77 25 75 24.1 95 95 Calm 29.97 1015 10 16 0.00 0.00
3:55 am 03:55 Clear 77 25.1 76 24.2 95 95 Calm 29.97 1015 10 16 0.00 0.00
4:15 am 04:15 Clear 77 25.2 76 24.3 95 95 Calm 29.97 1015 7 11 0.00 0.00
4:35 am 04:35 Clear with Mist and Fog 76 24.6 75 23.7 95 95 SE 3 6 29.97 1015 7 11 0.00 0.00
4:55 am 04:55 Clear 76 24.3 74 23.5 95 95 E 3 6 29.97 1015 7 11 0.00 0.00
5:15 am 05:15 Partly Cloudy 77 25 76 24.2 95 95 Calm 29.98 1015 10 16 0.00 0.00
5:35 am 05:35 Partly Cloudy 77 24.8 75 23.9 95 95 ESE 3 6 29.98 1015 7 11 0.00 0.00
6:00 am 06:00 Partly Cloudy 75 24 73 23 94 94 Calm 29.98 1015 10 16 0.00 0.00
6:45 am 06:45 Partly Cloudy 77 25 75 24 94 94 Calm 30.00 1016 10 16 0.00 0.00
7:53 am 07:53 Partly Cloudy 81 27 77 25 89 89 Calm 30.01 1016 10 16 0.00 0.00
8:50 am 08:50 Partly Cloudy 84 29 77 25 79 79 SW 6 9 30.03 1017 10 16 0.00 0.00
9:50 am 09:50 Mostly Cloudy 88 31 75 24 66 66 SW 10 17 30.04 1017 10 16 0.00 0.00
10:45 am 10:45 Mostly Cloudy with Thunderstorms 90 32 75 24 63 63 WSW 7 11 30.03 1017 10 16 0.00 0.00
12:55 pm 12:55 Mostly Cloudy 91 33 75 24 59 59 SSW 12 19 30.03 1017 10 16 0.00 0.00
1:51 pm 13:51 Mostly Cloudy 90 32 75 24 63 63 S 12 19 30.02 1017 10 16 0.00 0.00
2:55 pm 14:55 Mostly Cloudy 90 32 75 24 63 63 S 9 15 30.00 1016 10 16 0.00 0.00
3:46 pm 15:46 Mostly Cloudy 90 32 75 24 63 63 S 7 11 30.00 1016 10 16 0.00 0.00
4:47 pm 16:47 Partly Cloudy 91 33 75 24 59 59 S 9 15 29.99 1016 10 16 0.00 0.00
5:53 pm 17:53 Partly Cloudy 90 32 75 24 63 63 S 9 15 29.97 1015 10 16 0.00 0.00
6:45 pm 18:45 Partly Cloudy 90 32 75 24 63 63 S 8 13 29.96 1015 10 16 0.00 0.00
7:48 pm 19:48 Mostly Sunny 88 31 73 23 62 62 SSW 9 15 29.96 1015 10 16 0.00 0.00
8:48 pm 20:48 Mostly Clear 82 28 75 24 79 79 S 6 9 29.96 1015 10 16 0.00 0.00
9:55 pm 21:55 Mostly Clear 79 26 75 24 89 89 S 6 9 29.98 1015 10 16 0.00 0.00
10:15 pm 22:15 Clear 78 25.8 75 24.1 90 90 SSE 6 9 29.99 1016 10 16 0.00 0.00
10:35 pm 22:35 Clear 80 26.9 76 24.5 87 87 S 5 7 29.99 1016 10 16 0.00 0.00
10:55 pm 22:55 Clear 78 25.5 75 24 91 91 SSE 6 9 29.99 1016 10 16 0.00 0.00
11:15 pm 23:15 Clear 78 25.5 75 24 91 91 S 5 7 29.99 1016 10 16 0.00 0.00
11:35 pm 23:35 Clear 78 25.8 76 24.3 91 91 SSW 3 6 30.00 1016 10 16 0.00 0.00
11:55 pm 23:55 Clear 82 27.6 76 24.7 84 84 Calm 30.00 1016 10 16 0.00 0.00

Powered by AerisWeather